Weather History for Miles City, MT

Change the Weather History Date:

Monday, December 24, 2012

  Actual Average Record
Temperature  
Mean Temperature 3 °F 19 °F  
Max Temperature 10 °F 29 °F 54 °F (1963)
Min Temperature -4 °F 8 °F -38 °F (1983)
Degree Days  
Heating Degree Days 62 46  
Month to date heating degree days 914 1060  
Since 1 July heating degree days 2515 2859  
Cooling Degree Days 0 0  
Month to date cooling degree days 0 0  
Year to date cooling degree days 1107 730  
Moisture  
Dew Point 1 °F    
Average Humidity 80    
Maximum Humidity 87    
Minimum Humidity 73    
Precipitation  
Precipitation T in 0.01 in 0.35 in (2013)
Month to date precipitation 0.16 0.21  
Year to date precipitation 6.12 12.36  
Sea Level Pressure  
Sea Level Pressure 30.29 in    
Wind  
Wind Speed 9 mph (NNE)    
Max Wind Speed 17 mph    
Max Gust Speed 21 mph    
Visibility 6 miles    
Events Snow    
T = Trace of Precipitation, MM = Missing Value Source: NWS Daily Summary

Daily Weather History Graph

Daily Weather History Graph

Search for Another Location

Airport:

Trip Planner

Search our weather history database for the weather conditions in past years. The results will help you decide how hot, cold, wet, or windy it might be!

Date:

Astronomy

Dec. 24, 2012 Rise Set
Actual Time 7:45 AM MST 4:21 PM MST
Civil Twilight 7:10 AM MST 4:56 PM MST
Nautical Twilight 6:32 AM MST 5:34 PM MST
Astronomical Twilight 5:55 AM MST 6:11 PM MST
Moon 1:54 PM MST (12/24) 4:21 AM MST (12/24)
Length of Visible Light 9h 45m
Length of Day
8h 35m
Waxing Gibbous, 89% of the Moon is Illuminated
Dec 24
Waxing Gibbous
Dec 28
Full
Jan 4
Last Quarter
Jan 11
New
Jan 18
First Quarter

Hourly Weather History & Observations

Time (MST) Temp. Windchill Dew Point Humidity Pressure Visibility Wind Dir Wind Speed Gust Speed Precip Events Conditions
12:53 AM -0.9 °F -17.4 °F -6.0 °F 79% 30.17 in 10.0 mi NNE 10.4 mph - N/A   Clear
1:53 AM 1.0 °F -14.9 °F -2.9 °F 83% 30.14 in 10.0 mi NNE 10.4 mph - N/A   Clear
2:53 AM 3.0 °F -11.5 °F -0.9 °F 84% 30.14 in 10.0 mi NNE 9.2 mph - N/A   Clear
3:53 AM 3.0 °F -12.5 °F -0.9 °F 84% 30.15 in 10.0 mi NE 10.4 mph - N/A   Clear
4:53 AM 3.0 °F -12.5 °F -0.9 °F 84% 30.19 in 10.0 mi NNE 10.4 mph - N/A   Clear
5:53 AM 3.0 °F -10.5 °F -0.9 °F 84% 30.20 in 9.0 mi NNE 8.1 mph - N/A   Overcast
6:53 AM 1.9 °F -14.7 °F -2.0 °F 83% 30.22 in 8.0 mi NE 11.5 mph - N/A   Scattered Clouds
7:53 AM 1.0 °F -15.8 °F -2.9 °F 83% 30.23 in 7.0 mi NE 11.5 mph - N/A   Clear
8:53 AM 1.9 °F -17.5 °F -2.0 °F 83% 30.25 in 9.0 mi NE 16.1 mph - N/A   Clear
9:53 AM 3.9 °F -13.7 °F -0.0 °F 84% 30.27 in 9.0 mi NNE 13.8 mph - N/A   Scattered Clouds
10:53 AM 5.0 °F -10.8 °F 1.0 °F 84% 30.28 in 10.0 mi NNE 11.5 mph - N/A   Overcast
11:53 AM 6.1 °F -8.7 °F 1.9 °F 83% 30.28 in 10.0 mi NNE 10.4 mph - N/A   Overcast
12:53 PM 9.0 °F -6.6 °F 3.0 °F 77% 30.27 in 10.0 mi NE 12.7 mph - N/A   Mostly Cloudy
1:53 PM 10.0 °F -3.7 °F 3.0 °F 73% 30.27 in 10.0 mi NE 10.4 mph - N/A   Scattered Clouds
2:53 PM 8.1 °F -3.2 °F 1.9 °F 76% 30.30 in 10.0 mi NNE 6.9 mph - N/A   Clear
3:53 PM 9.0 °F -2.2 °F 1.9 °F 73% 30.34 in 10.0 mi NE 6.9 mph - N/A   Overcast
4:13 PM 8.6 °F -1.3 °F 3.2 °F 79% 30.18 in 10.0 mi ENE 5.8 mph - N/A   Overcast
4:53 PM 9.0 °F -0.9 °F 3.0 °F 77% 30.37 in 5.0 mi NNE 5.8 mph - 0.00 in Snow Light Snow
5:04 PM 8.6 °F -2.6 °F 3.2 °F 79% 30.20 in 4.0 mi NE 6.9 mph - 0.00 in Snow Light Snow
5:17 PM 8.6 °F -3.7 °F 3.2 °F 79% 30.21 in 3.0 mi NNE 8.1 mph - 0.00 in Snow Light Snow
5:28 PM 8.6 °F -3.7 °F 3.2 °F 79% 30.21 in 2.5 mi NNE 8.1 mph - 0.00 in Snow Light Snow
5:36 PM 8.6 °F -4.7 °F 3.2 °F 79% 30.22 in 3.0 mi NNE 9.2 mph - 0.00 in Snow Light Snow
5:53 PM 8.1 °F -4.3 °F 3.0 °F 80% 30.40 in 3.0 mi NNE 8.1 mph - 0.00 in Snow Light Snow
6:11 PM 8.6 °F -3.7 °F 3.2 °F 79% 30.24 in 2.5 mi NNE 8.1 mph - 0.00 in Snow Light Snow
6:34 PM 6.8 °F -6.9 °F 3.2 °F 85% 30.25 in 1.8 mi NE 9.2 mph - 0.00 in Snow Light Snow
6:41 PM 6.8 °F -7.8 °F 1.4 °F 79% 30.25 in 2.0 mi NE 10.4 mph - 0.00 in Snow Light Snow
6:53 PM 7.0 °F -6.6 °F 1.9 °F 80% 30.43 in 2.5 mi NE 9.2 mph - 0.00 in Snow Light Snow
7:05 PM 6.8 °F -3.5 °F 1.4 °F 79% 30.26 in 3.0 mi NE 5.8 mph - 0.00 in Snow Light Snow
7:53 PM 5.0 °F -5.6 °F 1.0 °F 84% 30.47 in 4.0 mi NNE 5.8 mph - 0.00 in Snow Light Snow
8:53 PM 3.9 °F -6.9 °F -0.0 °F 84% 30.49 in 4.0 mi NNE 5.8 mph - 0.00 in Snow Light Snow
9:34 PM 3.2 °F -6.2 °F -0.4 °F 85% 30.31 in 2.5 mi North 4.6 mph - 0.00 in Snow Light Snow
9:53 PM 3.9 °F -3.4 °F -0.0 °F 84% 30.50 in 2.5 mi NNW 3.5 mph - 0.00 in Snow Light Snow
10:04 PM 3.2 °F -4.2 °F -0.4 °F 85% 30.32 in 2.5 mi NNW 3.5 mph - 0.00 in Snow Light Snow
10:15 PM 3.2 °F -6.2 °F -0.4 °F 85% 30.33 in 3.0 mi NW 4.6 mph - 0.00 in Snow Light Snow
10:53 PM 3.9 °F -10.4 °F -0.9 °F 80% 30.52 in 5.0 mi NNW 9.2 mph - 0.00 in Snow Light Snow
11:53 PM 3.0 °F -8.0 °F -0.9 °F 84% 30.52 in 6.0 mi WNW 5.8 mph - 0.00 in Snow Light Snow